TimeEDT,TemperatureF,Dew PointF,Humidity,Sea Level PressureIn,VisibilityMPH,Wind Direction,Wind SpeedMPH,Gust SpeedMPH,PrecipitationIn,Events,Conditions,WindDirDegrees,DateUTC
12:51 AM,52.0,36.0,54,29.99,10.0,NNW,4.6,-,N/A,,Overcast,330,2014-04-12 04:51:00
1:51 AM,50.0,37.0,61,29.98,10.0,NW,3.5,-,N/A,,Overcast,310,2014-04-12 05:51:00
2:51 AM,50.0,37.0,61,29.98,10.0,NW,6.9,-,N/A,,Overcast,310,2014-04-12 06:51:00
3:51 AM,48.9,37.0,64,29.99,10.0,NW,9.2,-,N/A,,Overcast,310,2014-04-12 07:51:00
4:51 AM,48.0,37.9,68,30.02,10.0,WNW,6.9,-,N/A,,Mostly Cloudy,300,2014-04-12 08:51:00
5:51 AM,46.9,37.0,68,30.04,10.0,NNW,5.8,-,N/A,,Mostly Cloudy,340,2014-04-12 09:51:00
6:51 AM,46.9,33.1,59,30.07,10.0,NNW,6.9,-,N/A,,Scattered Clouds,340,2014-04-12 10:51:00
7:51 AM,51.1,30.0,44,30.09,10.0,NNW,6.9,-,N/A,,Partly Cloudy,340,2014-04-12 11:51:00
8:51 AM,54.0,28.0,37,30.11,10.0,NW,4.6,-,N/A,,Clear,320,2014-04-12 12:51:00
9:51 AM,55.9,27.0,33,30.11,10.0,WNW,6.9,-,N/A,,Clear,300,2014-04-12 13:51:00
10:51 AM,59.0,24.1,26,30.12,10.0,West,8.1,-,N/A,,Clear,260,2014-04-12 14:51:00
11:51 AM,61.0,23.0,23,30.10,10.0,WNW,9.2,-,N/A,,Clear,300,2014-04-12 15:51:00
12:51 PM,64.0,26.1,24,30.09,10.0,WSW,8.1,-,N/A,,Partly Cloudy,250,2014-04-12 16:51:00
1:51 PM,63.0,28.0,27,30.08,10.0,West,21.9,28.8,N/A,,Scattered Clouds,270,2014-04-12 17:51:00
2:51 PM,64.9,26.1,23,30.09,10.0,West,19.6,26.5,N/A,,Partly Cloudy,280,2014-04-12 18:51:00
3:51 PM,64.9,25.0,22,30.07,10.0,West,18.4,28.8,N/A,,Partly Cloudy,260,2014-04-12 19:51:00
4:51 PM,64.9,26.1,23,30.07,10.0,WNW,15.0,-,N/A,,Partly Cloudy,300,2014-04-12 20:51:00
5:51 PM,64.0,27.0,25,30.09,10.0,West,11.5,-,N/A,,Scattered Clouds,280,2014-04-12 21:51:00
6:51 PM,62.1,27.0,26,30.12,10.0,West,9.2,-,N/A,,Scattered Clouds,280,2014-04-12 22:51:00
7:51 PM,60.1,26.1,27,30.15,10.0,WSW,3.5,-,N/A,,Scattered Clouds,240,2014-04-12 23:51:00
8:51 PM,55.0,27.0,34,30.18,10.0,Calm,Calm,-,N/A,,Scattered Clouds,0,2014-04-13 00:51:00
9:51 PM,50.0,35.1,57,30.21,10.0,SSE,5.8,-,N/A,,Scattered Clouds,160,2014-04-13 01:51:00
10:51 PM,46.9,36.0,66,30.22,10.0,East,3.5,-,N/A,,Partly Cloudy,90,2014-04-13 02:51:00
11:51 PM,48.0,36.0,63,30.23,10.0,Calm,Calm,-,N/A,,Scattered Clouds,0,2014-04-13 03:51:00